Time,TemperatureF,DewpointF,PressureIn,WindDirection,WindDirectionDegrees,WindSpeedMPH,WindSpeedGustMPH,Humidity,HourlyPrecipIn,Conditions,Clouds,dailyrainin,SoftwareType,DateUTC
2013-05-01 00:02:00,62.0,54.0,30.02,ESE,115,0.0,0.0,75,0.00,,,0.00,,2013-05-01 05:02:00,
2013-05-01 00:11:00,62.0,54.0,30.02,ESE,115,0.0,0.0,75,0.00,,,0.00,,2013-05-01 05:11:00,
2013-05-01 00:21:00,61.0,54.0,30.03,ESE,115,0.0,0.0,79,0.00,,,0.00,,2013-05-01 05:21:00,
2013-05-01 00:32:00,61.0,54.0,30.03,ESE,115,0.0,0.0,79,0.00,,,0.00,,2013-05-01 05:32:00,
2013-05-01 00:42:00,61.0,54.0,30.03,ESE,115,0.0,0.0,79,0.00,,,0.00,,2013-05-01 05:42:00,
2013-05-01 00:52:00,61.0,54.0,30.03,ESE,115,0.0,1.0,78,0.00,,,0.00,,2013-05-01 05:52:00,
2013-05-01 01:02:00,60.0,54.0,30.03,ESE,115,0.0,1.0,80,0.00,,,0.00,,2013-05-01 06:02:00,
2013-05-01 01:11:00,60.0,54.0,30.03,ESE,115,0.0,1.0,80,0.00,,,0.00,,2013-05-01 06:11:00,
2013-05-01 01:22:00,59.0,53.0,30.03,ESE,115,0.0,0.0,81,0.00,,,0.00,,2013-05-01 06:22:00,
2013-05-01 01:32:00,59.0,53.0,30.03,ESE,115,0.0,0.0,81,0.00,,,0.00,,2013-05-01 06:32:00,
2013-05-01 01:42:00,59.0,53.0,30.03,ESE,115,0.0,0.0,81,0.00,,,0.00,,2013-05-01 06:42:00,
2013-05-01 01:52:00,59.0,54.0,30.03,ESE,115,0.0,0.0,82,0.00,,,0.00,,2013-05-01 06:52:00,
2013-05-01 02:01:00,58.0,53.0,30.03,ESE,115,0.0,0.0,83,0.00,,,0.00,,2013-05-01 07:01:00,
2013-05-01 02:11:00,58.0,53.0,30.03,ESE,115,0.0,0.0,83,0.00,,,0.00,,2013-05-01 07:11:00,
2013-05-01 02:21:00,58.0,53.0,30.03,ESE,115,0.0,0.0,84,0.00,,,0.00,,2013-05-01 07:21:00,
2013-05-01 02:32:00,57.0,53.0,30.03,ESE,115,0.0,0.0,85,0.00,,,0.00,,2013-05-01 07:32:00,
2013-05-01 02:42:00,57.0,53.0,30.03,ESE,115,0.0,0.0,85,0.00,,,0.00,,2013-05-01 07:42:00,
2013-05-01 02:52:00,57.0,53.0,30.03,ESE,115,0.0,0.0,85,0.00,,,0.00,,2013-05-01 07:52:00,
2013-05-01 03:01:00,57.0,53.0,30.03,ESE,115,0.0,0.0,85,0.00,,,0.00,,2013-05-01 08:01:00,
2013-05-01 03:11:00,57.0,53.0,30.03,ESE,115,0.0,0.0,85,0.00,,,0.00,,2013-05-01 08:11:00,
2013-05-01 03:22:00,56.0,52.0,30.04,ESE,115,0.0,0.0,87,0.00,,,0.00,,2013-05-01 08:22:00,
2013-05-01 03:32:00,56.0,52.0,30.04,ESE,115,0.0,0.0,87,0.00,,,0.00,,2013-05-01 08:32:00,
2013-05-01 03:42:00,56.0,52.0,30.04,ESE,115,0.0,0.0,87,0.00,,,0.00,,2013-05-01 08:42:00,
2013-05-01 03:53:00,56.0,52.0,30.04,ESE,115,0.0,0.0,87,0.00,,,0.00,,2013-05-01 08:53:00,
2013-05-01 04:01:00,55.0,52.0,30.04,ESE,115,0.0,1.0,88,0.00,,,0.00,,2013-05-01 09:01:00,
2013-05-01 04:11:00,55.0,52.0,30.04,ESE,115,0.0,1.0,88,0.00,,,0.00,,2013-05-01 09:11:00,
2013-05-01 04:21:00,55.0,52.0,30.04,ESE,115,0.0,0.0,88,0.00,,,0.00,,2013-05-01 09:21:00,
2013-05-01 04:33:00,55.0,52.0,30.04,ESE,115,0.0,0.0,88,0.00,,,0.00,,2013-05-01 09:33:00,
2013-05-01 04:42:00,55.0,52.0,30.04,ESE,115,0.0,0.0,88,0.00,,,0.00,,2013-05-01 09:42:00,
2013-05-01 04:53:00,55.0,52.0,30.04,ESE,115,0.0,0.0,89,0.00,,,0.00,,2013-05-01 09:53:00,
2013-05-01 05:02:00,55.0,52.0,30.05,ESE,115,0.0,0.0,89,0.00,,,0.00,,2013-05-01 10:02:00,
2013-05-01 05:12:00,55.0,52.0,30.05,ESE,115,0.0,0.0,89,0.00,,,0.00,,2013-05-01 10:12:00,
2013-05-01 05:22:00,55.0,52.0,30.05,ESE,115,0.0,0.0,90,0.00,,,0.00,,2013-05-01 10:22:00,
2013-05-01 05:33:00,55.0,52.0,30.05,ESE,115,0.0,1.0,89,0.00,,,0.00,,2013-05-01 10:33:00,
2013-05-01 05:42:00,55.0,52.0,30.05,ESE,115,0.0,1.0,89,0.00,,,0.00,,2013-05-01 10:42:00,
2013-05-01 05:53:00,55.0,52.0,30.06,ESE,115,0.0,1.0,90,0.00,,,0.00,,2013-05-01 10:53:00,
2013-05-01 06:02:00,55.0,52.0,30.07,ESE,109,0.0,1.0,89,0.00,,,0.00,,2013-05-01 11:02:00,
2013-05-01 06:11:00,55.0,52.0,30.07,ESE,109,0.0,1.0,89,0.00,,,0.00,,2013-05-01 11:11:00,
2013-05-01 06:22:00,55.0,52.0,30.07,ESE,109,0.0,1.0,88,0.00,,,0.00,,2013-05-01 11:22:00,
2013-05-01 06:32:00,56.0,52.0,30.08,ESE,109,0.0,2.0,88,0.00,,,0.00,,2013-05-01 11:32:00,
2013-05-01 06:42:00,56.0,52.0,30.08,ESE,109,0.0,2.0,88,0.00,,,0.00,,2013-05-01 11:42:00,
2013-05-01 06:52:00,57.0,53.0,30.09,ESE,109,0.0,1.0,87,0.00,,,0.00,,2013-05-01 11:52:00,
2013-05-01 07:01:00,58.0,54.0,30.09,ESE,109,0.0,1.0,86,0.00,,,0.00,,2013-05-01 12:01:00,
2013-05-01 07:11:00,58.0,54.0,30.09,ESE,109,0.0,1.0,86,0.00,,,0.00,,2013-05-01 12:11:00,
2013-05-01 07:21:00,60.0,55.0,30.09,ESE,109,0.0,0.0,84,0.00,,,0.00,,2013-05-01 12:21:00,
2013-05-01 07:31:00,62.0,56.0,30.10,ESE,107,0.0,1.0,82,0.00,,,0.00,,2013-05-01 12:31:00,
2013-05-01 07:41:00,62.0,56.0,30.10,ESE,107,0.0,1.0,82,0.00,,,0.00,,2013-05-01 12:41:00,
2013-05-01 07:52:00,65.0,57.0,30.11,ESE,107,0.0,2.0,76,0.00,,,0.00,,2013-05-01 12:52:00,
2013-05-01 08:01:00,66.0,58.0,30.11,ESE,107,0.0,1.0,75,0.00,,,0.00,,2013-05-01 13:01:00,
2013-05-01 08:11:00,66.0,58.0,30.11,ESE,107,0.0,1.0,75,0.00,,,0.00,,2013-05-01 13:11:00,
2013-05-01 08:21:00,67.0,58.0,30.11,SSW,202,1.0,4.0,72,0.00,,,0.00,,2013-05-01 13:21:00,
2013-05-01 08:32:00,68.0,58.0,30.11,SSW,201,1.0,5.0,70,0.00,,,0.00,,2013-05-01 13:32:00,
2013-05-01 08:42:00,68.0,58.0,30.11,SSW,201,1.0,5.0,70,0.00,,,0.00,,2013-05-01 13:42:00,
2013-05-01 08:52:00,68.0,58.0,30.11,SSW,192,0.0,4.0,70,0.00,,,0.00,,2013-05-01 13:52:00,
2013-05-01 09:02:00,69.0,58.0,30.12,SSW,194,1.0,4.0,69,0.00,,,0.00,,2013-05-01 14:02:00,
2013-05-01 09:11:00,69.0,58.0,30.12,SSW,194,1.0,4.0,69,0.00,,,0.00,,2013-05-01 14:11:00,
2013-05-01 09:21:00,70.0,59.0,30.12,SSW,194,2.0,6.0,68,0.00,,,0.00,,2013-05-01 14:21:00,
2013-05-01 09:32:00,71.0,59.0,30.12,ESE,117,2.0,7.0,67,0.00,,,0.00,,2013-05-01 14:32:00,
2013-05-01 09:42:00,71.0,59.0,30.12,ESE,117,2.0,7.0,67,0.00,,,0.00,,2013-05-01 14:42:00,
2013-05-01 09:52:00,72.0,60.0,30.12,SSE,162,2.0,8.0,67,0.00,,,0.00,,2013-05-01 14:52:00,
2013-05-01 10:01:00,73.0,61.0,30.12,South,184,3.0,6.0,66,0.00,,,0.00,,2013-05-01 15:01:00,
2013-05-01 10:11:00,73.0,61.0,30.12,South,184,3.0,6.0,66,0.00,,,0.00,,2013-05-01 15:11:00,
2013-05-01 10:21:00,74.0,61.0,30.13,SSW,205,1.0,8.0,65,0.00,,,0.00,,2013-05-01 15:21:00,
2013-05-01 10:33:00,75.0,62.0,30.12,South,186,2.0,7.0,63,0.00,,,0.00,,2013-05-01 15:33:00,
2013-05-01 10:43:00,75.0,62.0,30.12,South,186,2.0,7.0,63,0.00,,,0.00,,2013-05-01 15:43:00,
2013-05-01 10:53:00,76.0,62.0,30.12,SSE,152,2.0,7.0,63,0.00,,,0.00,,2013-05-01 15:53:00,
2013-05-01 11:03:00,75.0,62.0,30.13,SE,127,2.0,7.0,64,0.00,,,0.00,,2013-05-01 16:03:00,
2013-05-01 11:12:00,75.0,62.0,30.13,SE,127,2.0,7.0,64,0.00,,,0.00,,2013-05-01 16:12:00,
2013-05-01 11:22:00,75.0,61.0,30.13,SSW,213,3.0,7.0,62,0.00,,,0.00,,2013-05-01 16:22:00,
2013-05-01 11:32:00,75.0,62.0,30.13,South,178,3.0,7.0,63,0.00,,,0.00,,2013-05-01 16:32:00,
2013-05-01 11:42:00,75.0,62.0,30.13,South,178,3.0,7.0,63,0.00,,,0.00,,2013-05-01 16:42:00,
2013-05-01 11:53:00,76.0,63.0,30.13,WSW,254,1.0,4.0,64,0.00,,,0.00,,2013-05-01 16:53:00,
2013-05-01 12:02:00,76.0,62.0,30.13,SE,129,1.0,6.0,61,0.00,,,0.00,,2013-05-01 17:02:00,
2013-05-01 12:12:00,76.0,62.0,30.13,SE,129,1.0,6.0,61,0.00,,,0.00,,2013-05-01 17:12:00,
2013-05-01 12:21:00,77.0,63.0,30.12,SW,216,2.0,8.0,61,0.00,,,0.00,,2013-05-01 17:21:00,
2013-05-01 12:32:00,78.0,64.0,30.12,ENE,74,2.0,5.0,63,0.00,,,0.00,,2013-05-01 17:32:00,
2013-05-01 12:42:00,78.0,64.0,30.12,ENE,74,2.0,5.0,63,0.00,,,0.00,,2013-05-01 17:42:00,
2013-05-01 12:52:00,79.0,64.0,30.12,South,175,2.0,6.0,61,0.00,,,0.00,,2013-05-01 17:52:00,
2013-05-01 13:01:00,79.0,65.0,30.11,ESE,118,4.0,8.0,62,0.00,,,0.00,,2013-05-01 18:01:00,
2013-05-01 13:11:00,79.0,65.0,30.11,ESE,118,4.0,8.0,62,0.00,,,0.00,,2013-05-01 18:11:00,
2013-05-01 13:22:00,79.0,65.0,30.11,ESE,118,4.0,8.0,62,0.00,,,0.00,,2013-05-01 18:22:00,
2013-05-01 13:32:00,81.0,64.0,30.12,NE,44,2.0,7.0,56,0.00,,,0.00,,2013-05-01 18:32:00,
2013-05-01 13:41:00,81.0,64.0,30.12,NE,44,2.0,7.0,56,0.00,,,0.00,,2013-05-01 18:41:00,
2013-05-01 13:52:00,81.0,64.0,30.12,SE,130,2.0,9.0,57,0.00,,,0.00,,2013-05-01 18:52:00,
2013-05-01 14:02:00,81.0,63.0,30.12,SSE,167,4.0,11.0,54,0.00,,,0.00,,2013-05-01 19:02:00,
2013-05-01 14:11:00,81.0,63.0,30.12,SSE,167,4.0,11.0,54,0.00,,,0.00,,2013-05-01 19:11:00,
2013-05-01 14:22:00,81.0,64.0,30.11,SE,131,2.0,7.0,56,0.00,,,0.00,,2013-05-01 19:22:00,
2013-05-01 14:32:00,82.0,63.0,30.11,SE,133,2.0,7.0,53,0.00,,,0.00,,2013-05-01 19:32:00,
2013-05-01 14:43:00,82.0,63.0,30.11,SE,133,2.0,7.0,53,0.00,,,0.00,,2013-05-01 19:43:00,
2013-05-01 14:52:00,82.0,62.0,30.10,SSE,162,3.0,13.0,51,0.00,,,0.00,,2013-05-01 19:52:00,
2013-05-01 15:01:00,83.0,61.0,30.10,South,184,2.0,8.0,48,0.00,,,0.00,,2013-05-01 20:01:00,
2013-05-01 15:11:00,83.0,61.0,30.10,South,184,2.0,8.0,48,0.00,,,0.00,,2013-05-01 20:11:00,
2013-05-01 15:21:00,82.0,63.0,30.10,East,101,2.0,8.0,52,0.00,,,0.00,,2013-05-01 20:21:00,
2013-05-01 15:32:00,82.0,61.0,30.10,South,175,3.0,10.0,50,0.00,,,0.00,,2013-05-01 20:32:00,
2013-05-01 15:42:00,82.0,61.0,30.10,South,175,3.0,10.0,50,0.00,,,0.00,,2013-05-01 20:42:00,
2013-05-01 15:52:00,82.0,62.0,30.09,SE,138,2.0,8.0,51,0.00,,,0.00,,2013-05-01 20:52:00,
2013-05-01 16:01:00,83.0,59.0,30.09,SSE,165,5.0,10.0,44,0.00,,,0.00,,2013-05-01 21:01:00,
2013-05-01 16:11:00,83.0,59.0,30.09,SSE,165,5.0,10.0,44,0.00,,,0.00,,2013-05-01 21:11:00,
2013-05-01 16:22:00,83.0,59.0,30.09,South,180,4.0,8.0,44,0.00,,,0.00,,2013-05-01 21:22:00,
2013-05-01 16:32:00,83.0,58.0,30.09,South,186,3.0,9.0,43,0.00,,,0.00,,2013-05-01 21:32:00,
2013-05-01 16:43:00,83.0,58.0,30.09,South,186,3.0,9.0,43,0.00,,,0.00,,2013-05-01 21:43:00,
2013-05-01 16:53:00,83.0,58.0,30.09,SSW,193,4.0,7.0,42,0.00,,,0.00,,2013-05-01 21:53:00,
2013-05-01 17:03:00,82.0,60.0,30.09,ESE,108,2.0,7.0,47,0.00,,,0.00,,2013-05-01 22:03:00,
2013-05-01 17:12:00,82.0,60.0,30.09,ESE,108,2.0,7.0,47,0.00,,,0.00,,2013-05-01 22:12:00,
2013-05-01 17:23:00,81.0,61.0,30.09,ESE,117,1.0,5.0,51,0.00,,,0.00,,2013-05-01 22:23:00,
2013-05-01 17:33:00,81.0,61.0,30.08,ESE,111,1.0,4.0,50,0.00,,,0.00,,2013-05-01 22:33:00,
2013-05-01 17:42:00,81.0,61.0,30.08,ESE,111,1.0,4.0,50,0.00,,,0.00,,2013-05-01 22:42:00,
2013-05-01 17:53:00,80.0,59.0,30.08,ESE,117,1.0,4.0,49,0.00,,,0.00,,2013-05-01 22:53:00,
2013-05-01 18:02:00,80.0,60.0,30.08,SE,126,2.0,5.0,50,0.00,,,0.00,,2013-05-01 23:02:00,
2013-05-01 18:12:00,80.0,60.0,30.08,SE,126,2.0,5.0,50,0.00,,,0.00,,2013-05-01 23:12:00,
2013-05-01 18:21:00,80.0,62.0,30.08,SE,140,1.0,4.0,55,0.00,,,0.00,,2013-05-01 23:21:00,
2013-05-01 18:32:00,81.0,63.0,30.08,ESE,111,1.0,4.0,55,0.00,,,0.00,,2013-05-01 23:32:00,
2013-05-01 18:42:00,81.0,63.0,30.08,ESE,111,1.0,4.0,55,0.00,,,0.00,,2013-05-01 23:42:00,
2013-05-01 18:52:00,79.0,61.0,30.08,SSE,157,1.0,5.0,54,0.00,,,0.00,,2013-05-01 23:52:00,
2013-05-01 19:01:00,79.0,61.0,30.08,SSE,157,1.0,5.0,54,0.00,,,0.00,,2013-05-02 00:01:00,
2013-05-01 19:11:00,79.0,61.0,30.08,SSE,157,1.0,5.0,54,0.00,,,0.00,,2013-05-02 00:11:00,
2013-05-01 19:21:00,76.0,61.0,30.08,East,92,0.0,2.0,60,0.00,,,0.00,,2013-05-02 00:21:00,
2013-05-01 19:32:00,76.0,62.0,30.09,ESE,105,0.0,1.0,62,0.00,,,0.00,,2013-05-02 00:32:00,
2013-05-01 19:42:00,76.0,62.0,30.09,ESE,105,0.0,1.0,62,0.00,,,0.00,,2013-05-02 00:42:00,
2013-05-01 19:52:00,75.0,61.0,30.09,ENE,73,0.0,2.0,62,0.00,,,0.00,,2013-05-02 00:52:00,
2013-05-01 20:01:00,74.0,61.0,30.09,ENE,73,0.0,1.0,64,0.00,,,0.00,,2013-05-02 01:01:00,
2013-05-01 20:11:00,74.0,61.0,30.09,ENE,73,0.0,1.0,64,0.00,,,0.00,,2013-05-02 01:11:00,
2013-05-01 20:21:00,74.0,61.0,30.09,ENE,73,0.0,0.0,64,0.00,,,0.00,,2013-05-02 01:21:00,
2013-05-01 20:32:00,74.0,62.0,30.10,ENE,73,0.0,0.0,67,0.00,,,0.00,,2013-05-02 01:32:00,
2013-05-01 20:42:00,74.0,62.0,30.10,ENE,73,0.0,0.0,67,0.00,,,0.00,,2013-05-02 01:42:00,
2013-05-01 20:52:00,73.0,62.0,30.11,ENE,73,0.0,0.0,69,0.00,,,0.00,,2013-05-02 01:52:00,
2013-05-01 21:02:00,72.0,62.0,30.11,ENE,73,0.0,0.0,70,0.00,,,0.00,,2013-05-02 02:02:00,
2013-05-01 21:12:00,72.0,62.0,30.11,ENE,73,0.0,0.0,70,0.00,,,0.00,,2013-05-02 02:12:00,
2013-05-01 21:21:00,71.0,62.0,30.11,ENE,73,0.0,0.0,72,0.00,,,0.00,,2013-05-02 02:21:00,
2013-05-01 21:32:00,70.0,62.0,30.11,ENE,73,0.0,0.0,75,0.00,,,0.00,,2013-05-02 02:32:00,
2013-05-01 21:42:00,70.0,62.0,30.11,ENE,73,0.0,0.0,75,0.00,,,0.00,,2013-05-02 02:42:00,
2013-05-01 21:51:00,70.0,62.0,30.11,ENE,73,0.0,0.0,75,0.00,,,0.00,,2013-05-02 02:51:00,
2013-05-01 22:01:00,68.0,61.0,30.12,ENE,73,0.0,1.0,78,0.00,,,0.00,,2013-05-02 03:01:00,
2013-05-01 22:11:00,68.0,61.0,30.12,ENE,73,0.0,1.0,78,0.00,,,0.00,,2013-05-02 03:11:00,
2013-05-01 22:22:00,67.0,61.0,30.12,ENE,73,0.0,0.0,80,0.00,,,0.00,,2013-05-02 03:22:00,
2013-05-01 22:32:00,67.0,61.0,30.11,ENE,73,0.0,0.0,81,0.00,,,0.00,,2013-05-02 03:32:00,
2013-05-01 22:42:00,67.0,61.0,30.11,ENE,73,0.0,0.0,81,0.00,,,0.00,,2013-05-02 03:42:00,
2013-05-01 22:53:00,66.0,60.0,30.11,ENE,73,0.0,1.0,80,0.00,,,0.00,,2013-05-02 03:53:00,
2013-05-01 23:03:00,66.0,60.0,30.11,ENE,73,0.0,0.0,81,0.00,,,0.00,,2013-05-02 04:03:00,
2013-05-01 23:12:00,66.0,60.0,30.11,ENE,73,0.0,0.0,81,0.00,,,0.00,,2013-05-02 04:12:00,
2013-05-01 23:23:00,65.0,60.0,30.11,ENE,73,0.0,1.0,83,0.00,,,0.00,,2013-05-02 04:23:00,
2013-05-01 23:33:00,65.0,60.0,30.10,ENE,73,0.0,1.0,84,0.00,,,0.00,,2013-05-02 04:33:00,
2013-05-01 23:42:00,65.0,60.0,30.10,ENE,73,0.0,1.0,84,0.00,,,0.00,,2013-05-02 04:42:00,
2013-05-01 23:52:00,64.0,59.0,30.10,ENE,73,0.0,0.0,85,0.00,,,0.00,,2013-05-02 04:52:00,